This is the latest recevied weather packets stored in our database for station/object N9NDF. If no packets are shown the sender has not sent any weather packets the latest 10 day(s).
| Time | Temp. | Humidity | Pressure | Rain* | Wind** | Luminosity | Snow |
|---|---|---|---|---|---|---|---|
| 1778350057 | 25° C | 49% | 985.1 hPa | 0 mm | - | 923 W/m² | - |
| 1778349996 | 25° C | 51% | 985.1 hPa | 0 mm | - | 937 W/m² | - |
| 1778349936 | 25° C | 49% | 985.1 hPa | 0 mm | - | 944 W/m² | - |
| 1778349876 | 25° C | 50% | 985 hPa | 0 mm | - | 954 W/m² | - |
| 1778349816 | 25° C | 53% | 985.1 hPa | 0 mm | - | 971 W/m² | - |
| 1778349756 | 25° C | 53% | 985.1 hPa | 0 mm | - | 984 W/m² | - |
| 1778349696 | 25° C | 53% | 985.1 hPa | 0 mm | - | 993 W/m² | - |
| 1778349636 | 25° C | 53% | 985.1 hPa | 0 mm | - | 1005 W/m² | - |
| 1778349576 | 24.44° C | 53% | 985.1 hPa | 0 mm | - | 1018 W/m² | - |
| 1778349516 | 24.44° C | 54% | 985.1 hPa | 0 mm | - | 995 W/m² | - |
| 1778349456 | 24.44° C | 55% | 985 hPa | 0 mm | - | 993 W/m² | - |
| 1778349422 | 24.44° C | 54% | 985 hPa | 0 mm | - | 979 W/m² | - |
| 1778349337 | 24.44° C | 53% | 985.1 hPa | 0 mm | - | 975 W/m² | - |
| 1778349276 | 24.44° C | 54% | 985.1 hPa | 0 mm | - | 963 W/m² | - |
| 1778349216 | 24.44° C | 54% | 985.1 hPa | 0 mm | - | 935 W/m² | - |
| 1778349156 | 23.89° C | 55% | 985.2 hPa | 0 mm | - | 936 W/m² | - |
| 1778349096 | 23.89° C | 55% | 985.2 hPa | 0 mm | - | 955 W/m² | - |
| 1778349037 | 23.89° C | 54% | 985.2 hPa | 0 mm | - | 969 W/m² | - |
| 1778348976 | 23.89° C | 53% | 985.2 hPa | 0 mm | - | 978 W/m² | - |
| 1778348916 | 23.89° C | 53% | 985.2 hPa | 0 mm | - | 976 W/m² | - |
| 1778348857 | 23.89° C | 52% | 985.2 hPa | 0 mm | - | 965 W/m² | - |
| 1778348796 | 23.89° C | 52% | 985.2 hPa | 0 mm | - | 957 W/m² | - |
| 1778348736 | 23.89° C | 53% | 985.2 hPa | 0 mm | - | 952 W/m² | - |
| 1778348677 | 23.89° C | 55% | 985.3 hPa | 0 mm | - | 947 W/m² | - |
| 1778348616 | 23.89° C | 57% | 985.3 hPa | 0 mm | - | 946 W/m² | - |
* Rain latest hour (hover to see other rain measurements)
** Current wind speed in m/s (hover to see current wind gust speed)